• In Hungary
  • List of Countries
  • For 7 days
  • Water Temperature
  • Satellite Maps
  • Weather Map
  • News
  • Weather Widgets
  • user-avatar
    Login

    Hourly Weather Ashtarak

    Today, 23 October, Tuesday

    Time Temperature Precipitation Wind Pressure Humidity
    00:00 +12°C° 0.1 mm 1 mps 659 mmHg 68%
    01:00 +12°C° 0 mm 1 mps 659 mmHg 69%
    02:00 +11°C° 0 mm 1 mps 659 mmHg 70%
    03:00 +11°C° 0 mm 1 mps 658 mmHg 73%
    04:00 +11°C° 0 mm 1 mps 658 mmHg 74%
    05:00 +11°C° 0 mm 1 mps 658 mmHg 75%
    06:00 +11°C° 0 mm 1 mps 658 mmHg 76%
    07:00 +12°C° 0 mm 2 mps 659 mmHg 70%
    08:00 +14°C° 0 mm 2 mps 659 mmHg 65%
    09:00 +15°C° 0 mm 2 mps 660 mmHg 60%
    10:00 +16°C° 0.1 mm 3 mps 660 mmHg 56%
    11:00 +17°C° 0.1 mm 3 mps 659 mmHg 52%
    12:00 +18°C° 0.1 mm 3 mps 659 mmHg 47%
    13:00 +18°C° 0.2 mm 3 mps 659 mmHg 47%
    14:00 +18°C° 0.2 mm 3 mps 659 mmHg 46%
    15:00 +18°C° 0.2 mm 3 mps 658 mmHg 46%
    16:00 +16°C° 0.1 mm 3 mps 658 mmHg 50%
    17:00 +15°C° 0.1 mm 2 mps 658 mmHg 54%
    18:00 +14°C° 0.1 mm 2 mps 657 mmHg 59%
    19:00 +13°C° 0 mm 2 mps 658 mmHg 60%
    20:00 +13°C° 0 mm 2 mps 658 mmHg 61%
    21:00 +12°C° 0 mm 2 mps 658 mmHg 62%
    22:00 +12°C° 0 mm 2 mps 658 mmHg 63%
    23:00 +12°C° 0 mm 2 mps 657 mmHg 65%

    Tomorrow, 24 October, Wednesday

    Time Temperature Precipitation Wind Pressure Humidity
    00:00 +12°C° 0 mm 2 mps 657 mmHg 66%
    01:00 +10°C° 0 mm 2 mps 657 mmHg 66%
    02:00 +10°C° 0 mm 2 mps 657 mmHg 67%
    03:00 +10°C° 0 mm 2 mps 657 mmHg 68%
    04:00 +10°C° 0 mm 2 mps 656 mmHg 68%
    05:00 +9°C° 0 mm 2 mps 656 mmHg 69%
    06:00 +9°C° 0 mm 2 mps 656 mmHg 69%
    07:00 +10°C° 0.4 mm 2 mps 656 mmHg 67%
    08:00 +11°C° 0.4 mm 3 mps 656 mmHg 66%
    09:00 +13°C° 0.4 mm 3 mps 656 mmHg 64%
    10:00 +13°C° 1.1 mm 3 mps 656 mmHg 64%
    11:00 +13°C° 1.1 mm 3 mps 655 mmHg 64%
    12:00 +14°C° 1.1 mm 3 mps 655 mmHg 64%
    13:00 +15°C° 0.3 mm 4 mps 654 mmHg 60%
    14:00 +15°C° 0.3 mm 4 mps 654 mmHg 57%
    15:00 +16°C° 0.3 mm 5 mps 654 mmHg 54%
    16:00 +15°C° 0.3 mm 4 mps 653 mmHg 57%
    17:00 +14°C° 0.3 mm 4 mps 653 mmHg 61%
    18:00 +13°C° 0.3 mm 3 mps 653 mmHg 64%
    19:00 +13°C° 0.3 mm 3 mps 653 mmHg 67%
    20:00 +13°C° 0.3 mm 3 mps 653 mmHg 70%
    21:00 +12°C° 0.3 mm 3 mps 653 mmHg 73%
    22:00 +12°C° 0.2 mm 4 mps 653 mmHg 74%
    23:00 +12°C° 0.2 mm 4 mps 653 mmHg 76%

    Day after tomorrow, 25 October, Thursday

    Time Temperature Precipitation Wind Pressure Humidity
    00:00 +12°C° 0.2 mm 4 mps 652 mmHg 77%
    01:00 +11°C° 0.1 mm 4 mps 652 mmHg 78%
    02:00 +11°C° 0.1 mm 4 mps 652 mmHg 78%
    03:00 +11°C° 0.1 mm 3 mps 651 mmHg 79%
    04:00 +11°C° 0.5 mm 3 mps 651 mmHg 79%
    05:00 +11°C° 0.5 mm 3 mps 650 mmHg 79%
    06:00 +11°C° 0.5 mm 3 mps 650 mmHg 78%
    07:00 +12°C° 0.1 mm 5 mps 650 mmHg 72%
    08:00 +14°C° 0.1 mm 6 mps 650 mmHg 65%
    09:00 +15°C° 0.1 mm 7 mps 650 mmHg 59%
    10:00 +16°C° 0.2 mm 7 mps 650 mmHg 55%
    11:00 +17°C° 0.2 mm 8 mps 649 mmHg 51%
    12:00 +19°C° 0.2 mm 9 mps 649 mmHg 47%
    13:00 +18°C° 1.1 mm 9 mps 648 mmHg 49%
    14:00 +18°C° 1.1 mm 9 mps 648 mmHg 51%
    15:00 +18°C° 1.1 mm 9 mps 648 mmHg 53%
    16:00 +17°C° 0.7 mm 7 mps 648 mmHg 56%
    17:00 +16°C° 0.7 mm 6 mps 648 mmHg 59%
    18:00 +15°C° 0.7 mm 4 mps 648 mmHg 62%
    19:00 +14°C° 0.4 mm 4 mps 648 mmHg 63%
    20:00 +14°C° 0.4 mm 4 mps 648 mmHg 64%
    21:00 +14°C° 0.4 mm 4 mps 648 mmHg 66%
    22:00 +13°C° 0.5 mm 4 mps 648 mmHg 66%
    23:00 +13°C° 0.5 mm 4 mps 648 mmHg 67%

    26 October, Friday

    Time Temperature Precipitation Wind Pressure Humidity
    00:00 +13°C° 0.5 mm 4 mps 648 mmHg 67%
    01:00 +13°C° 0.7 mm 4 mps 648 mmHg 69%
    02:00 +12°C° 0.7 mm 4 mps 649 mmHg 72%
    03:00 +12°C° 0.7 mm 5 mps 649 mmHg 74%
    04:00 +11°C° 1.1 mm 4 mps 649 mmHg 76%
    05:00 +11°C° 1.1 mm 4 mps 649 mmHg 79%
    06:00 +10°C° 1.1 mm 3 mps 650 mmHg 81%
    07:00 +9°C° 1.3 mm 3 mps 650 mmHg 81%
    08:00 +9°C° 1.3 mm 3 mps 650 mmHg 81%
    09:00 +7°C° 1.3 mm 4 mps 650 mmHg 81%
    10:00 +8°C° 2.6 mm 3 mps 650 mmHg 81%
    11:00 +7°C° 2.6 mm 3 mps 650 mmHg 81%
    12:00 +7°C° 2.6 mm 3 mps 650 mmHg 82%
    13:00 +7°C° 1.2 mm 3 mps 651 mmHg 81%
    14:00 +7°C° 1.2 mm 2 mps 651 mmHg 80%
    15:00 +7°C° 1.2 mm 2 mps 652 mmHg 80%
    16:00 +7°C° 0.3 mm 2 mps 652 mmHg 79%
    17:00 +7°C° 0.3 mm 2 mps 653 mmHg 78%
    18:00 +7°C° 0.3 mm 2 mps 654 mmHg 77%
    19:00 +6°C° 0.1 mm 2 mps 655 mmHg 77%
    20:00 +6°C° 0.1 mm 2 mps 656 mmHg 77%
    21:00 +4°C° 0.1 mm 3 mps 657 mmHg 76%
    22:00 +4°C° 0 mm 2 mps 657 mmHg 76%
    23:00 +4°C° 0 mm 2 mps 658 mmHg 75%

    27 October, Saturday

    Time Temperature Precipitation Wind Pressure Humidity
    00:00 +3°C° 0 mm 2 mps 658 mmHg 74%
    01:00 +3°C° 0 mm 2 mps 658 mmHg 73%
    02:00 +3°C° 0 mm 2 mps 659 mmHg 73%
    03:00 +2°C° 0 mm 2 mps 659 mmHg 72%
    04:00 +2°C° 0 mm 2 mps 660 mmHg 71%
    05:00 +2°C° 0 mm 2 mps 660 mmHg 69%
    06:00 +2°C° 0 mm 2 mps 660 mmHg 68%
    07:00 +5°C° 0 mm 1 mps 661 mmHg 67%
    08:00 +6°C° 0 mm 1 mps 661 mmHg 65%
    09:00 +7°C° 0 mm 1 mps 662 mmHg 64%
    10:00 +8°C° 0 mm 1 mps 662 mmHg 64%
    11:00 +9°C° 0 mm 1 mps 662 mmHg 64%
    12:00 +10°C° 0 mm 1 mps 661 mmHg 64%
    13:00 +11°C° 0 mm 1 mps 661 mmHg 61%
    14:00 +11°C° 0 mm 1 mps 661 mmHg 58%
    15:00 +11°C° 0 mm 1 mps 661 mmHg 56%
    16:00 +10°C° 0 mm 1 mps 661 mmHg 55%
    17:00 +9°C° 0 mm 1 mps 661 mmHg 54%
    18:00 +7°C° 0 mm 1 mps 661 mmHg 54%
    19:00 +7°C° 0 mm 1 mps 662 mmHg 54%
    20:00 +7°C° 0 mm 1 mps 662 mmHg 53%
    21:00 +6°C° 0 mm 1 mps 662 mmHg 53%
    22:00 +6°C° 0 mm 1 mps 663 mmHg 52%
    23:00 +6°C° 0 mm 1 mps 663 mmHg 51%

    28 October, Sunday

    Time Temperature Precipitation Wind Pressure Humidity
    00:00 +5°C° 0 mm 1 mps 663 mmHg 49%
    01:00 +5°C° 0 mm 1 mps 663 mmHg 48%
    02:00 +5°C° 0 mm 1 mps 663 mmHg 47%
    03:00 +5°C° 0 mm 1 mps 663 mmHg 45%
    04:00 +5°C° 0 mm 1 mps 663 mmHg 45%
    05:00 +5°C° 0 mm 1 mps 663 mmHg 44%
    06:00 +5°C° 0 mm 1 mps 663 mmHg 44%
    07:00 +6°C° 0 mm 1 mps 663 mmHg 45%
    08:00 +8°C° 0 mm 1 mps 664 mmHg 47%
    09:00 +10°C° 0 mm 1 mps 664 mmHg 48%
    10:00 +11°C° 0 mm 1 mps 664 mmHg 49%
    11:00 +12°C° 0 mm 1 mps 664 mmHg 51%
    12:00 +13°C° 0 mm 1 mps 664 mmHg 52%
    13:00 +13°C° 0 mm 1 mps 664 mmHg 49%
    14:00 +14°C° 0 mm 1 mps 664 mmHg 46%
    15:00 +14°C° 0 mm 1 mps 664 mmHg 43%
    16:00 +12°C° 0 mm 1 mps 663 mmHg 43%
    17:00 +11°C° 0 mm 1 mps 663 mmHg 44%
    18:00 +9°C° 0 mm 1 mps 663 mmHg 44%
    19:00 +9°C° 0 mm 1 mps 663 mmHg 43%
    20:00 +9°C° 0 mm 1 mps 663 mmHg 42%
    21:00 +9°C° 0 mm 1 mps 664 mmHg 42%
    22:00 +8°C° 0 mm 1 mps 664 mmHg 41%
    23:00 +8°C° 0 mm 1 mps 664 mmHg 41%

    29 October, Monday

    Time Temperature Precipitation Wind Pressure Humidity
    00:00 +8°C° 0 mm 1 mps 663 mmHg 40%
    01:00 +8°C° 0 mm 1 mps 663 mmHg 39%
    02:00 +8°C° 0 mm 1 mps 663 mmHg 39%
    03:00 +7°C° 0 mm 1 mps 663 mmHg 38%
    04:00 +7°C° 0 mm 1 mps 663 mmHg 38%
    05:00 +7°C° 0 mm 1 mps 663 mmHg 37%
    06:00 +7°C° 0 mm 1 mps 663 mmHg 37%
    07:00 +9°C° 0 mm 1 mps 664 mmHg 38%
    08:00 +11°C° 0 mm 1 mps 664 mmHg 39%
    09:00 +12°C° 0 mm 1 mps 665 mmHg 39%
    10:00 +13°C° 0 mm 1 mps 665 mmHg 39%
    11:00 +15°C° 0 mm 1 mps 665 mmHg 38%
    12:00 +16°C° 0 mm 1 mps 665 mmHg 37%
    13:00 +16°C° 0 mm 1 mps 665 mmHg 36%
    14:00 +16°C° 0 mm 1 mps 664 mmHg 35%
    15:00 +16°C° 0 mm 1 mps 664 mmHg 34%
    16:00 +14°C° 0 mm 1 mps 664 mmHg 35%
    17:00 +13°C° 0 mm 1 mps 664 mmHg 37%
    18:00 +11°C° 0 mm 1 mps 663 mmHg 38%
    19:00 +10°C° 0 mm 1 mps 663 mmHg 38%
    20:00 +10°C° 0 mm 1 mps 663 mmHg 38%
    21:00 +10°C° 0 mm 1 mps 663 mmHg 37%
    22:00 +9°C° 0 mm 1 mps 663 mmHg 36%
    23:00 +9°C° 0 mm 1 mps 663 mmHg 35%
    Show more